Regional Weather Roundup
Issued by NWS

Home | Current Version | Previous Version | Graphics & Text | Print | Product List | Glossary On
Versions: 1 2 3 4 5 6 7 8 9 10 11 12 13 14 15 16 17 18 19 20 21 22 23 24 25 26 27 28 29 30 31 32 33 34 35 36 37 38 39 40 41 42 43 44 45 46 47 48 49 50
000
ASUS43 KMKX 130120
RWRWI

WISCONSIN REGIONAL WEATHER ROUNDUP
NATIONAL WEATHER SERVICE MILWAUKEE/SULLIVAN WI
700 PM CST TUE DEC 12 2017

NOTE: "FAIR" INDICATES FEW OR NO CLOUDS BELOW 12,000 FEET WITH NO
SIGNIFICANT WEATHER AND/OR OBSTRUCTIONS TO VISIBILITY.

WIZ001-002-006>008-014>016-023>028-130200-
NORTHWEST WISCONSIN

CITY           SKY/WX    TMP DP  RH WIND       PRES   REMARKS
SUPERIOR ARPT  LGT SNOW  14  10  82 S6        29.88F WCI   5
ASHLAND        LGT SNOW  13   5  70 S5        29.91S WCI   5
HAYWARD        LGT SNOW  12   6  77 S9        29.87F WCI   0
SIREN          CLOUDY    15   9  79 SE7       29.86F WCI   5
CUMBERLAND     LGT SNOW  12   9  85 S8        29.86F WCI   1
RICE LAKE      LGT SNOW  13  10  84 CALM      29.90F
CHETEK         CLOUDY    13   8  81 S5        29.90F WCI   5
LADYSMITH      LGT SNOW  13   7  75 S8        29.90F WCI   2
EAU CLAIRE     LGT SNOW  15  10  80 SE6       29.91S WCI   6
MENOMONIE      CLOUDY    17  10  75 SE7       29.91F WCI   7
NEW RICHMOND   CLOUDY    17  10  74 SE7       29.86F WCI   8
OSCEOLA        CLOUDY    18  11  76 SE8       29.89F WCI   7
$$

WIZ003>005-009-010-017-018-130200-
NORTH CENTRAL WISCONSIN

CITY           SKY/WX    TMP DP  RH WIND       PRES   REMARKS
MANITOWISH WTR CLOUDY     9   2  72 S3        29.84F
ARBOR VITAE    CLOUDY    11   3  69 CALM      29.84F
WOODRUFF       CLOUDY    11   3  69 CALM      29.84F
RHINELANDER    CLOUDY    11   1  64 SW3       29.86F
EAGLE RIVER    CLOUDY     6   2  81 CALM      29.84F
LAND O LAKES   CLOUDY     4   1  86 CALM      29.86F
PHILLIPS       FLURRIES  10   1  67 S3        29.86F
TOMAHAWK       CLOUDY    11   0  59 CALM      29.88S
MEDFORD        CLOUDY    11   0  60 SW3       29.88S
MERRILL        CLOUDY    13  -1  54 SW5       29.90F WCI   5
$$

WIZ029-030-035-036-043>047-130200-
CENTRAL WISCONSIN

CITY           SKY/WX    TMP DP  RH WIND       PRES   REMARKS
WAUSAU         CLOUDY    12   1  61 SW3       29.90F
MOSINEE        CLOUDY    12   1  62 SW3       29.93F
MARSHFIELD     CLOUDY    14   2  58 W7        29.90F WCI   4
STEVENS POINT  CLOUDY    12  -1  55 CALM      29.94S
WAUPACA        CLOUDY    16   4  60 SW3       29.97F
WAUTOMA        CLOUDY    14   3  61 CALM      29.98F
WISC RAPIDS    CLOUDY    15   1  53 W5        29.95F WCI   8
CAMP DOUGLAS   FLURRIES  18   1  49 S3        29.95F
$$

WIZ011>013-019>022-031-037>040-048>050-130200-
NORTHEAST WISCONSIN

CITY           SKY/WX    TMP DP  RH WIND       PRES   REMARKS
ANTIGO         CLOUDY    11   1  62 W6        29.87F WCI   2
SHAWANO        CLOUDY    17   4  56 CALM      29.95F
OCONTO         CLEAR      4  -1  80 CALM      29.96F
STURGEON BAY   MOCLDY    15   4  61 NW8       29.96S WCI   4
GREEN BAY      CLOUDY    15   3  59 W7        29.96F WCI   5
MANITOWOC      CLEAR     10   5  80 W5        29.98S WCI   2
APPLETON       CLOUDY    14   0  52 W7        29.93F WCI   4
CLINTONVILLE   CLOUDY    16   1  53 W8        29.96S WCI   5
OSHKOSH        CLOUDY    14   2  58 W3        29.96F
$$

WIZ032>034-041-042-053>061-130200-
SOUTHWEST WISCONSIN

CITY           SKY/WX    TMP DP  RH WIND       PRES   REMARKS
LA CROSSE      CLOUDY    22   9  57 SE7       29.95F WCI  13
SPARTA         CLOUDY    18   6  59 CALM      29.95F
VIROQUA        CLOUDY    18   9  66 S6        29.94F WCI  10
BOSCOBEL       CLOUDY    23   7  50 S3        30.00F
PRAIRIE DU CHI CLOUDY    24   8  49 CALM      29.99F
PLATTEVILLE    CLOUDY    22  11  60 SW5       29.98F WCI  16
$$

WIZ056-057-062-063-064-067-068-130200-
SOUTH CENTRAL WISCONSIN

CITY           SKY/WX    TMP DP  RH WIND       PRES   REMARKS
REEDSBURG      CLOUDY    18   2  48 SW6       29.97F WCI  10
BARABOO/DELLS  CLOUDY    18   2  48 W5        29.96F WCI  11
LONE ROCK      CLOUDY    20   7  57 CALM      30.00F
MINERAL POINT  CLOUDY    23   9  54 SW6       29.96F WCI  16
MADISON        CLOUDY    18   3  52 CALM      29.97F
MIDDLETON      CLOUDY    20   4  50 W5        29.97F WCI  14
WATERTOWN      CLOUDY    15   4  62 SW3       29.97F
MONROE         CLOUDY    21   5  49 SW8       29.97F WCI  12
JANESVILLE     CLOUDY    30   1  29 CALM      29.99F
$$

WIZ051-052-058>065-066-070>072-130200-
SOUTHEAST WISCONSIN

CITY           SKY/WX    TMP DP  RH WIND       PRES   REMARKS
MILWAUKEE      MOCLDY    19   3  49 W8        29.98F WCI   9
WAUKESHA       CLOUDY    16   1  53 W7        29.98F WCI   6
MILWAUKEE/TIMM CLOUDY    16   0  48 W8        29.99F WCI   5
RACINE         CLOUDY    16   4  59 CALM      30.00F
BURLINGTON       N/A    N/A N/A N/A MISG        N/A
KENOSHA        CLOUDY    16   3  56 W6        29.98F WCI   7
FOND DU LAC    CLOUDY    15   1  53 CALM      29.97F
SHEBOYGAN      CLOUDY    14   5  67 W5        29.97S WCI   6
WEST BEND      CLOUDY    16   1  53 W12       29.97S WCI   3
JUNEAU         CLOUDY    13   3  64 CALM      29.98F
$$

LSZ147-162-130200-
LAKE SUPERIOR

STATION/POSITION TIME  TEMP    WIND        PRES    WAVE
                       AIR SEA DIR/SP/G            HT/PER
                 (UTC) (F)     (DEG/KT/KT) (MB)    (FT/S)
DEVILS ISLAND    0100   16     170/  7/  9 1013.7F
SAXON HARBOR     0040   14                 1012.9S
$$

LMZ867-665-643>646-130200-
LAKE MICHIGAN

STATION/POSITION TIME  TEMP    WIND        PRES    WAVE
                       AIR SEA DIR/SP/G            HT/PER
                 (UTC) (F)     (DEG/KT/KT) (MB)    (FT/S)
NORTHPORT PIER   0040   18     330/ 10/ 15 1014.2F
KEWAUNEE LAKESHO 0054   13     290/  3/  4 1014.1F
SHEBOYGAN LAKESH 0100   16     290/  8/  9 1016.4F
PORT WASHINGTON  0040   17     290/  5/ 13 1016.3F
MILWAUKEE LAKESH 0100   18     300/  7/  8   N/A
KENOSHA   LAKESH 0100   17     280/  5/  7 1015.9
$$

TC  - TEMPERATURE IN CELSIUS
VSB - VISIBILITY IN STATUTE MILES
WCI - WIND CHILL INDEX
HX  - HEAT INDEX




USA.gov is the U.S. government's official web portal to all federal, state and local government web resources and services.